DW6996 Weather Reports


Display with metric or nautical units.
time (UTC)temp
F
wind
direction
speed
MPH
gust
MPH
rain 1hr
in
rain 24hr
in
rain mn
in
humidity
%
barometer
mb
20260510051829 90 240 0.0 0.0 0.00 0.00 0.00 12 1006.5
20260510051547 90 240 0.0 0.0 0.00 0.00 0.00 11 1006.4
20260510050828 90 240 0.0 0.0 0.00 0.00 0.00 11 1006.5
20260510050330 90 240 0.0 0.0 0.00 0.00 0.00 11 1006.5
20260510045830 90 236 0.0 0.0 0.00 0.00 0.00 11 1006.5
20260510045329 90 236 0.0 0.0 0.00 0.00 0.00 11 1006.5
20260510045058 90 232 0.0 0.0 0.00 0.00 0.00 11 1006.4
20260510044329 90 227 0.0 0.0 0.00 0.00 0.00 12 1006.4
20260510043830 91 227 0.0 0.0 0.00 0.00 0.00 11 1006.4
20260510043328 91 227 0.0 0.0 0.00 0.00 0.00 11 1006.3
20260510042829 91 227 0.0 0.0 0.00 0.00 0.00 11 1006.3
20260510042329 91 221 0.0 0.0 0.00 0.00 0.00 11 1006.2
20260510042309 91 219 0.0 0.0 0.00 0.00 0.00 11 1006.1
20260510041328 91 219 0.0 0.0 0.00 0.00 0.00 11 1006.1
20260510040829 92 213 0.0 0.0 0.00 0.00 0.00 11 1006.0
20260510040329 92 213 0.0 0.0 0.00 0.00 0.00 11 1006.0
20260510040049 92 218 0.0 0.0 0.00 0.00 0.00 11 1005.9
20260510035329 92 200 0.0 0.0 0.00 0.00 0.00 11 1005.9
20260510034829 92 199 0.0 0.0 0.00 0.00 0.00 11 1005.8
20260510034329 92 199 0.0 0.0 0.00 0.00 0.00 11 1005.7
20260510034050 92 199 0.0 0.0 0.00 0.00 0.00 11 1005.6
20260510033329 93 198 0.0 0.0 0.00 0.00 0.00 11 1005.5
20260510032829 93 216 0.0 0.0 0.00 0.00 0.00 11 1005.5
20260510032329 93 208 0.0 0.0 0.00 0.00 0.00 10 1005.4
20260510031829 93 208 0.0 0.0 0.00 0.00 0.00 10 1005.4
20260510031329 93 208 0.0 0.0 0.00 0.00 0.00 10 1005.2
20260510030829 94 209 0.0 0.0 0.00 0.00 0.00 10 1005.1
20260510030549 94 209 0.0 0.0 0.00 0.00 0.00 10 1005.1
20260510025829 94 209 0.0 0.0 0.00 0.00 0.00 10 1005.0
20260510025329 95 209 0.0 0.0 0.00 0.00 0.00 10 1004.9
20260510024829 95 209 0.0 0.0 0.00 0.00 0.00 10 1004.8
20260510024329 95 208 0.0 0.0 0.00 0.00 0.00 9 1004.8
20260510023829 96 209 0.0 0.0 0.00 0.00 0.00 9 1004.8
20260510023329 96 209 0.0 5.0 0.00 0.00 0.00 9 1004.7
20260510023316 96 208 1.0 5.0 0.00 0.00 0.00 9 1004.7
20260510022537 97 221 0.0 6.0 0.00 0.00 0.00 9 1004.7
20260510022518 97 213 1.0 6.0 0.00 0.00 0.00 9 1004.6
20260510021329 98 220 1.0 8.0 0.00 0.00 0.00 8 1004.6
20260510020829 98 213 1.0 8.0 0.00 0.00 0.00 8 1004.6
20260510020330 98 237 0.0 7.0 0.00 0.00 0.00 8 1004.6
20260510015831 98 227 0.0 1.0 0.00 0.00 0.00 8 1004.6
20260510015324 99 217 0.0 1.0 0.00 0.00 0.00 8 1004.5
20260510014818 99 218 0.0 1.0 0.00 0.00 0.00 8 1004.5
20260510014311 99 237 1.0 14.0 0.00 0.00 0.00 8 1004.5
20260510013810 99 227 2.0 14.0 0.00 0.00 0.00 8 1004.5
20260510013310 99 202 1.0 10.0 0.00 0.00 0.00 8 1004.5
20260510012810 100 245 1.0 15.0 0.00 0.00 0.00 8 1004.6
20260510012310 100 245 2.0 15.0 0.00 0.00 0.00 8 1004.5
20260510011808 100 229 1.0 17.0 0.00 0.00 0.00 8 1004.5
20260510011308 100 242 1.0 17.0 0.00 0.00 0.00 8 1004.6
20260510011034 100 232 4.0 19.0 0.00 0.00 0.00 8 1004.5
20260510010308 100 250 4.0 19.0 0.00 0.00 0.00 8 1004.5
20260510005808 101 248 3.0 16.0 0.00 0.00 0.00 9 1004.5
20260510005308 101 259 3.0 16.0 0.00 0.00 0.00 9 1004.6
20260510004808 101 215 2.0 16.0 0.00 0.00 0.00 8 1004.6
20260510004308 101 221 1.0 14.0 0.00 0.00 0.00 9 1004.6
20260510003805 101 235 1.0 14.0 0.00 0.00 0.00 9 1004.6
20260510003306 101 252 2.0 14.0 0.00 0.00 0.00 9 1004.5
20260510002806 101 231 3.0 17.0 0.00 0.00 0.00 9 1004.6
20260510002307 101 234 2.0 17.0 0.00 0.00 0.00 9 1004.6
20260510001806 102 211 1.0 11.0 0.00 0.00 0.00 9 1004.6
20260510001302 102 232 1.0 12.0 0.00 0.00 0.00 9 1004.7
20260510000801 102 182 1.0 13.0 0.00 0.00 0.00 9 1004.6
20260510000304 102 212 2.0 17.0 0.00 0.00 0.00 9 1004.6
20260509235802 102 239 4.0 19.0 0.00 0.00 0.00 9 1004.8
20260509235300 102 217 5.0 19.0 0.00 0.00 0.00 9 1004.7
20260509234801 102 207 5.0 15.0 0.00 0.00 0.00 9 1004.8
20260509234301 102 214 4.0 14.0 0.00 0.00 0.00 9 1004.8
20260509233801 102 199 1.0 14.0 0.00 0.00 0.00 9 1004.8
20260509233301 102 167 1.0 10.0 0.00 0.00 0.00 9 1004.8
20260509232802 102 248 1.0 14.0 0.00 0.00 0.00 9 1004.9
20260509232527 102 251 2.0 14.0 0.00 0.00 0.00 9 1005.0
20260509231801 102 202 2.0 15.0 0.00 0.00 0.00 8 1004.9
20260509231301 103 190 1.0 16.0 0.00 0.00 0.00 9 1004.9
20260509230801 103 194 2.0 18.0 0.00 0.00 0.00 9 1005.0
20260509230300 102 216 1.0 18.0 0.00 0.00 0.00 9 1005.1
20260509225801 102 246 1.0 17.0 0.00 0.00 0.00 9 1005.1
20260509225516 102 209 1.0 13.0 0.00 0.00 0.00 9 1005.2
20260509225502 103 235 1.0 13.0 0.00 0.00 0.00 9 1005.2
20260509224528 102 209 1.0 7.0 0.00 0.00 0.00 9 1005.4
20260509223803 102 191 2.0 15.0 0.00 0.00 0.00 8 1005.4
20260509223300 103 223 2.0 15.0 0.00 0.00 0.00 9 1005.5
20260509222802 103 218 1.0 18.0 0.00 0.00 0.00 9 1005.5
20260509222531 103 246 1.0 18.0 0.00 0.00 0.00 9 1005.7
20260509221801 102 215 0.0 6.0 0.00 0.00 0.00 8 1005.6
20260509221522 102 225 0.0 6.0 0.00 0.00 0.00 8 1005.8
20260509220801 102 213 2.0 13.0 0.00 0.00 0.00 9 1006.0
20260509220301 102 242 2.0 13.0 0.00 0.00 0.00 9 1006.0
20260509215800 102 260 1.0 11.0 0.00 0.00 0.00 9 1006.2
20260509215305 103 192 0.0 4.0 0.00 0.00 0.00 9 1006.2
20260509214800 103 219 1.0 10.0 0.00 0.00 0.00 8 1006.3
20260509214301 102 219 0.0 10.0 0.00 0.00 0.00 8 1006.4
20260509213802 102 221 0.0 4.0 0.00 0.00 0.00 9 1006.5
20260509213300 102 257 0.0 4.0 0.00 0.00 0.00 8 1006.5
20260509212801 102 264 0.0 1.0 0.00 0.00 0.00 9 1006.5
20260509212305 102 273 0.0 3.0 0.00 0.00 0.00 9 1006.6
20260509211803 102 247 0.0 6.0 0.00 0.00 0.00 8 1006.7
20260509211303 102 254 0.0 6.0 0.00 0.00 0.00 9 1006.7
20260509210801 102 260 1.0 12.0 0.00 0.00 0.00 9 1006.9
20260509210301 102 195 1.0 12.0 0.00 0.00 0.00 9 1006.9
20260509205801 101 219 1.0 6.0 0.00 0.00 0.00 9 1006.9
20260509205301 101 230 1.0 8.0 0.00 0.00 0.00 9 1007.1
20260509204806 101 214 0.0 8.0 0.00 0.00 0.00 9 1007.1
20260509204301 101 190 0.0 2.0 0.00 0.00 0.00 11 1007.2
20260509203801 101 198 0.0 5.0 0.00 0.00 0.00 10 1007.3
20260509203301 101 234 0.0 6.0 0.00 0.00 0.00 10 1007.3
20260509202802 101 255 0.0 6.0 0.00 0.00 0.00 11 1007.4
20260509202301 100 227 0.0 1.0 0.00 0.00 0.00 11 1007.4
20260509202023 100 263 0.0 2.0 0.00 0.00 0.00 11 1007.5
20260509201524 100 241 0.0 2.0 0.00 0.00 0.00 11 1007.7
20260509200801 100 220 0.0 2.0 0.00 0.00 0.00 11 1007.8
20260509200302 100 195 0.0 2.0 0.00 0.00 0.00 12 1008.0
20260509200023 99 224 0.0 6.0 0.00 0.00 0.00 12 1008.1
20260509195301 99 199 0.0 6.0 0.00 0.00 0.00 12 1008.1
20260509195253 99 215 0.0 1.0 0.00 0.00 0.00 13 1008.2
20260509194301 98 198 0.0 0.0 0.00 0.00 0.00 13 1008.3
20260509193801 98 247 0.0 0.0 0.00 0.00 0.00 13 1008.2
20260509193301 98 235 0.0 1.0 0.00 0.00 0.00 13 1008.3
20260509192801 98 246 0.0 1.0 0.00 0.00 0.00 13 1008.4
20260509192305 97 232 0.0 0.0 0.00 0.00 0.00 13 1008.5
20260509191802 97 246 0.0 0.0 0.00 0.00 0.00 13 1008.6
20260509191745 97 209 0.0 0.0 0.00 0.00 0.00 13 1008.6
20260509191022 97 173 0.0 1.0 0.00 0.00 0.00 14 1008.7
20260509190302 97 219 0.0 1.0 0.00 0.00 0.00 13 1008.7
20260509185803 97 207 0.0 0.0 0.00 0.00 0.00 13 1008.8
20260509185302 97 202 0.0 0.0 0.00 0.00 0.00 13 1008.8
20260509184801 97 111 0.0 0.0 0.00 0.00 0.00 13 1008.8
20260509184303 96 246 0.0 0.0 0.00 0.00 0.00 13 1008.9
20260509183800 96 216 0.0 1.0 0.00 0.00 0.00 14 1008.9
20260509183301 96 198 0.0 1.0 0.00 0.00 0.00 14 1009.1
20260509183037 95 173 0.0 1.0 0.00 0.00 0.00 15 1009.1
20260509182522 95 153 0.0 0.0 0.00 0.00 0.00 14 1009.2
20260509182246 95 165 0.0 0.0 0.00 0.00 0.00 14 1009.3
20260509181302 95 207 0.0 0.0 0.00 0.00 0.00 14 1009.4
20260509180801 95 215 0.0 1.0 0.00 0.00 0.00 14 1009.4
20260509180529 94 208 0.0 1.0 0.00 0.00 0.00 14 1009.5
20260509175801 94 121 0.0 3.0 0.00 0.00 0.00 15 1009.5
20260509175301 94 152 0.0 3.0 0.00 0.00 0.00 15 1009.5
20260509174802 94 252 0.0 0.0 0.00 0.00 0.00 15 1009.5
20260509174302 93 268 0.0 1.0 0.00 0.00 0.00 14 1009.6
20260509173801 94 196 0.0 2.0 0.00 0.00 0.00 14 1009.6
20260509173302 93 233 0.0 2.0 0.00 0.00 0.00 14 1009.6
20260509172759 93 224 0.0 0.0 0.00 0.00 0.00 14 1009.6
20260509172252 94 238 0.0 0.0 0.00 0.00 0.00 14 1009.6
20260509172233 93 206 0.0 0.0 0.00 0.00 0.00 13 1009.7
20260509171240 93 146 0.0 0.0 0.00 0.00 0.00 13 1009.7
20260509170734 93 160 0.0 0.0 0.00 0.00 0.00 14 1009.7
20260509170234 92 161 0.0 0.0 0.00 0.00 0.00 14 1009.6
20260509170001 92 212 0.0 0.0 0.00 0.00 0.00 14 1009.6
20260509165233 92 212 0.0 0.0 0.00 0.00 0.00 15 1009.7
20260509164955 91 212 0.0 0.0 0.00 0.00 0.00 15 1009.7
20260509164232 91 212 0.0 0.0 0.00 0.00 0.00 15 1009.6
20260509163732 91 212 0.0 0.0 0.00 0.00 0.00 14 1009.6
20260509163232 91 211 0.0 0.0 0.00 0.00 0.00 14 1009.7
20260509162729 90 221 0.0 0.0 0.00 0.00 0.00 15 1009.6
20260509162228 90 221 0.0 0.0 0.00 0.00 0.00 15 1009.6
20260509161729 89 249 0.0 0.0 0.00 0.00 0.00 15 1009.6
20260509161230 88 287 0.0 0.0 0.00 0.00 0.00 15 1009.7
20260509160728 89 250 0.0 0.0 0.00 0.00 0.00 15 1009.6
20260509160229 89 258 0.0 0.0 0.00 0.00 0.00 15 1009.7
20260509155728 88 167 0.0 0.0 0.00 0.00 0.00 15 1009.7
20260509155231 88 166 0.0 0.0 0.00 0.00 0.00 16 1009.7
20260509154729 87 167 0.0 0.0 0.00 0.00 0.00 15 1009.6
20260509154229 87 166 0.0 0.0 0.00 0.00 0.00 16 1009.6
20260509153950 87 166 0.0 0.0 0.00 0.00 0.00 17 1009.5
20260509153230 87 169 0.0 0.0 0.00 0.00 0.00 16 1009.5
20260509152729 87 168 0.0 0.0 0.00 0.00 0.00 18 1009.5
20260509152230 86 166 0.0 0.0 0.00 0.00 0.00 17 1009.5
20260509151729 86 166 0.0 0.0 0.00 0.00 0.00 18 1009.5
20260509151228 85 166 0.0 0.0 0.00 0.00 0.00 18 1009.5
20260509150728 85 163 0.0 0.0 0.00 0.00 0.00 18 1009.5
20260509150229 85 163 0.0 0.0 0.00 0.00 0.00 18 1009.6
20260509145731 84 163 0.0 0.0 0.00 0.00 0.00 19 1009.5
20260509145229 84 163 0.0 0.0 0.00 0.00 0.00 19 1009.5
20260509144729 83 163 0.0 0.0 0.00 0.00 0.00 20 1009.4
20260509144229 83 44 0.0 0.0 0.00 0.00 0.00 20 1009.4
20260509143731 83 43 0.0 0.0 0.00 0.00 0.00 19 1009.4
20260509143452 82 43 0.0 0.0 0.00 0.00 0.00 19 1009.3
20260509142726 82 43 0.0 0.0 0.00 0.00 0.00 19 1009.3
20260509142442 81 43 0.0 0.0 0.00 0.00 0.00 20 1009.2
20260509141714 81 43 0.0 0.0 0.00 0.00 0.00 20 1009.3
20260509141208 81 43 0.0 0.0 0.00 0.00 0.00 20 1009.3
20260509140708 80 43 0.0 0.0 0.00 0.00 0.00 20 1009.2
20260509140207 80 43 0.0 0.0 0.00 0.00 0.00 20 1009.3
20260509135706 79 43 0.0 0.0 0.00 0.00 0.00 20 1009.2
20260509135206 79 43 0.0 0.0 0.00 0.00 0.00 21 1009.1
20260509134703 78 43 0.0 0.0 0.00 0.00 0.00 21 1009.1
20260509134202 78 43 0.0 0.0 0.00 0.00 0.00 21 1008.9
20260509133703 78 53 0.0 0.0 0.00 0.00 0.00 21 1008.9
20260509133202 78 53 0.0 0.0 0.00 0.00 0.00 21 1008.9
20260509132702 78 53 0.0 0.0 0.00 0.00 0.00 21 1008.9
20260509132201 78 53 0.0 0.0 0.00 0.00 0.00 21 1008.8
20260509131924 78 53 0.0 0.0 0.00 0.00 0.00 21 1008.7
20260509131202 78 53 0.0 0.0 0.00 0.00 0.00 21 1008.6
20260509130702 78 53 0.0 0.0 0.00 0.00 0.00 22 1008.6
20260509130202 78 53 0.0 0.0 0.00 0.00 0.00 21 1008.5
20260509125701 78 53 0.0 0.0 0.00 0.00 0.00 21 1008.5
20260509125202 78 53 0.0 0.0 0.00 0.00 0.00 21 1008.5
20260509124700 78 53 0.0 0.0 0.00 0.00 0.00 21 1008.4
20260509124202 78 53 0.0 0.0 0.00 0.00 0.00 21 1008.3
20260509123700 78 53 0.0 0.0 0.00 0.00 0.00 21 1008.2
20260509123201 78 53 0.0 0.0 0.00 0.00 0.00 21 1008.1
20260509122701 78 53 0.0 0.0 0.00 0.00 0.00 21 1008.1
20260509122202 78 53 0.0 0.0 0.00 0.00 0.00 21 1008.0
20260509121700 79 53 0.0 0.0 0.00 0.00 0.00 21 1008.0
20260509121202 79 53 0.0 0.0 0.00 0.00 0.00 21 1008.0
20260509120701 79 53 0.0 0.0 0.00 0.00 0.00 21 1008.0
20260509120201 79 53 0.0 0.0 0.00 0.00 0.00 21 1008.0
20260509115700 78 53 0.0 0.0 0.00 0.00 0.00 21 1007.8
20260509115201 79 211 0.0 0.0 0.00 0.00 0.00 21 1007.8
20260509114700 79 215 0.0 0.0 0.00 0.00 0.00 21 1007.7
20260509114202 79 215 0.0 0.0 0.00 0.00 0.00 21 1007.7
20260509113702 79 215 0.0 0.0 0.00 0.00 0.00 21 1007.6
20260509113201 79 215 0.0 0.0 0.00 0.00 0.00 20 1007.6
20260509112701 79 215 0.0 0.0 0.00 0.00 0.00 20 1007.6
20260509112425 79 215 0.0 0.0 0.00 0.00 0.00 20 1007.6
20260509111701 79 215 0.0 0.0 0.00 0.00 0.00 20 1007.6
20260509111201 79 215 0.0 0.0 0.00 0.00 0.00 20 1007.5
20260509110701 80 215 0.0 0.0 0.00 0.00 0.00 20 1007.5
20260509110200 80 215 0.0 0.0 0.00 0.00 0.00 19 1007.5
20260509105701 80 215 0.0 0.0 0.00 0.00 0.00 19 1007.4
20260509105202 80 216 0.0 0.0 0.00 0.00 0.00 19 1007.4
20260509104702 80 217 0.0 0.0 0.00 0.00 0.00 18 1007.4
20260509104201 80 216 0.0 0.0 0.00 0.00 0.00 18 1007.4
20260509103702 81 217 0.0 0.0 0.00 0.00 0.00 18 1007.4
20260509103201 81 217 0.0 0.0 0.00 0.00 0.00 18 1007.4
20260509102701 81 217 0.0 0.0 0.00 0.00 0.00 17 1007.4
20260509102201 81 216 0.0 0.0 0.00 0.00 0.00 17 1007.3
20260509101701 81 216 0.0 0.0 0.00 0.00 0.00 17 1007.3
20260509101201 81 216 0.0 0.0 0.00 0.00 0.00 17 1007.4
20260509100702 81 188 0.0 0.0 0.00 0.00 0.00 17 1007.4
20260509100200 82 181 0.0 0.0 0.00 0.00 0.00 17 1007.4
20260509095701 82 181 0.0 0.0 0.00 0.00 0.00 17 1007.4
20260509095202 82 180 0.0 0.0 0.00 0.00 0.00 16 1007.4
20260509094929 82 180 0.0 0.0 0.00 0.00 0.00 16 1007.4
20260509094158 82 180 0.0 0.0 0.00 0.00 0.00 16 1007.3
20260509093658 82 180 0.0 0.0 0.00 0.00 0.00 16 1007.3
20260509093643 82 180 0.0 0.0 0.00 0.00 0.00 16 1007.4
20260509092659 82 180 0.0 0.0 0.00 0.00 0.00 16 1007.4
20260509092156 82 180 0.0 0.0 0.00 0.00 0.00 16 1007.4
20260509091918 83 180 0.0 0.0 0.00 0.00 0.00 16 1007.4
20260509091154 83 180 0.0 0.0 0.00 0.00 0.00 16 1007.4
20260509090914 83 180 0.0 0.0 0.00 0.00 0.00 16 1007.4
20260509090635 83 181 0.0 0.0 0.00 0.00 0.00 17 1007.5
20260509085650 83 180 0.0 0.0 0.00 0.00 0.00 17 1007.4
20260509085149 83 180 0.0 0.0 0.00 0.00 0.00 17 1007.4
20260509084650 83 181 0.0 0.0 0.00 0.00 0.00 17 1007.4
20260509084150 83 181 0.0 0.0 0.00 0.00 0.00 17 1007.4
20260509083649 83 180 0.0 0.0 0.00 0.00 0.00 17 1007.3
20260509083146 83 181 0.0 0.0 0.00 0.00 0.00 17 1007.3
20260509082645 83 181 0.0 0.0 0.00 0.00 0.00 17 1007.3
20260509082146 83 181 0.0 0.0 0.00 0.00 0.00 17 1007.3
20260509081646 83 181 0.0 0.0 0.00 0.00 0.00 17 1007.3
20260509081146 84 181 0.0 0.0 0.00 0.00 0.00 17 1007.3
20260509080645 84 181 0.0 0.0 0.00 0.00 0.00 17 1007.3
20260509080145 84 181 0.0 0.0 0.00 0.00 0.00 17 1007.3
20260509075646 84 181 0.0 0.0 0.00 0.00 0.00 17 1007.3
20260509075146 84 181 0.0 0.0 0.00 0.00 0.00 17 1007.3
20260509074641 84 181 0.0 0.0 0.00 0.00 0.00 17 1007.2
20260509074141 84 181 0.0 0.0 0.00 0.00 0.00 17 1007.3
20260509073642 84 180 0.0 0.0 0.00 0.00 0.00 17 1007.2
20260509073141 84 177 0.0 0.0 0.00 0.00 0.00 17 1007.3
20260509072642 84 267 0.0 0.0 0.00 0.00 0.00 17 1007.3
20260509072619 85 266 0.0 0.0 0.00 0.00 0.00 17 1007.4
20260509071641 85 267 0.0 0.0 0.00 0.00 0.00 17 1007.3
20260509071141 85 271 0.0 0.0 0.00 0.00 0.00 17 1007.3
20260509070642 85 271 0.0 0.0 0.00 0.00 0.00 17 1007.3
20260509070136 85 271 0.0 0.0 0.00 0.00 0.00 17 1007.3
20260509065634 85 271 0.0 0.0 0.00 0.00 0.00 17 1007.2
20260509065134 85 271 0.0 0.0 0.00 0.00 0.00 17 1007.3
20260509064634 85 271 0.0 0.0 0.00 0.00 0.00 17 1007.3
20260509064629 85 271 0.0 0.0 0.00 0.00 0.00 17 1007.3
20260509063634 86 271 0.0 0.0 0.00 0.00 0.00 17 1007.2
20260509063134 86 271 0.0 0.0 0.00 0.00 0.00 17 1007.3
20260509062853 86 271 0.0 0.0 0.00 0.00 0.00 17 1007.2
20260509062135 86 271 0.0 0.0 0.00 0.00 0.00 17 1007.2
20260509061635 86 271 0.0 0.0 0.00 0.00 0.00 17 1007.2
20260509061132 87 261 0.0 0.0 0.00 0.00 0.00 17 1007.1
20260509060632 87 261 0.0 0.0 0.00 0.00 0.00 17 1007.1
20260509060133 87 261 0.0 0.0 0.00 0.00 0.00 17 1007.1
20260509055632 87 209 0.0 0.0 0.00 0.00 0.00 17 1007.0
20260509055352 87 213 0.0 0.0 0.00 0.00 0.00 17 1007.1
20260509054632 87 213 0.0 0.0 0.00 0.00 0.00 17 1007.1
20260509054358 87 213 0.0 0.0 0.00 0.00 0.00 17 1007.1
20260509053630 87 213 0.0 0.0 0.00 0.00 0.00 17 1007.1
20260509053130 87 213 0.0 0.0 0.00 0.00 0.00 17 1007.1
20260509052630 88 208 0.0 0.0 0.00 0.00 0.00 17 1007.1
20260509052353 88 208 0.0 0.0 0.00 0.00 0.00 17 1007.1